RH
98 98 98 89 90 93 99 99 100 95 93 97 89 91 85 63 54 49 54 72 81 91 99 80 71 48 45
99 99 98 96 92 94 97 95 99 99 100 97 90 94 83 58 32 24 37 60 78 91 94 97 90 95 68
100 99 97 91 93 91 92 99 99 100 99 96 95 95 73 25 13 11 11 58 78 91 99 94 95 77 68
99 98 94 95 95 95 98 99 100 100 98 99 96 83 32 15 12 13 9 35 77 87 100 100 99 99 100
96 95 94 93 95 99 100 100 100 98 96 90 80 32 18 15 15 11 10 12 64 84 98 100 100 100 98
93 94 96 95 97 99 100 97 99 64 62 46 24 17 17 15 13 12 9 9 21 74 86 99 100 100 99
90 91 97 95 98 97 98 99 85 50 31 19 17 14 17 16 15 14 11 8 9 25 74 85 96 100 100
90 94 97 98 100 90 86 66 41 28 21 15 15 14 16 16 15 16 17 18 10 8 14 56 77 79 83
17 24 40 47 38 36 32 30 23 16 14 14 14 16 17 17 19 21 21 21 21 19 9 7 15 43 60
14 13 13 15 18 18 18 18 15 13 12 16 16 16 21 23 24 24 25 26 25 24 24 23 16 10 8
19 15 13 13 12 11 12 13 14 13 14 15 17 21 22 20 20 21 23 26 28 27 27 26 24 23 23
22 24 21 19 20 20 19 19 18 17 16 16 28 40 32 31 29 24 16 18 22 26 27 26 25 24 24
25 25 23 22 24 25 25 23 22 20 30 43 50 55 45 34 27 22 19 19 18 19 20 21 22 24 23
26 28 26 24 25 25 25 25 24 25 32 42 42 34 32 31 29 28 26 26 25 25 25 25 26 26 27
20 22 23 22 24 25 24 25 28 28 36 45 40 38 39 40 40 37 35 33 32 32 32 32 32 33 33
21 23 23 21 21 24 25 25 27 30 32 40 43 42 45 43 43 49 53 41 39 40 41 41 41 43 42
24 24 24 23 22 22 23 25 27 28 30 32 39 40 45 42 40 47 60 73 66 49 46 61 72 69 67
Wind_Speed
18 19 19 16 16 16 16 16 16 16 17 15 17 22 17 14 12 11 10 9 9 11 12 12 9 12 16
21 19 16 15 16 17 17 17 15 15 14 17 18 17 14 13 13 11 11 7 7 7 10 9 3 8 14
17 17 18 18 18 18 18 17 16 16 16 16 19 16 13 11 11 9 9 7 4 4 3 4 2 6 9
16 19 17 17 17 16 15 15 15 15 15 18 14 14 14 11 10 8 6 6 7 5 2 11 8 11 11
15 17 16 14 14 12 11 12 12 14 16 12 12 12 11 11 9 7 6 8 9 10 5 6 16 12 13
14 14 13 13 13 11 10 11 11 10 10 12 11 9 9 9 7 5 5 7 10 12 11 6 7 8 8
12 12 14 12 12 12 11 13 13 10 9 10 8 8 7 6 5 4 4 4 8 11 14 12 10 6 6
14 14 14 12 14 14 14 13 11 9 9 9 6 7 6 5 5 3 4 3 3 7 10 13 14 12 10
13 14 14 14 13 12 12 11 10 8 8 7 5 4 5 5 5 4 4 3 3 2 4 8 12 13 15
11 11 11 12 12 12 10 10 9 6 7 7 5 3 2 3 3 4 4 3 4 3 2 3 5 7 9
11 10 11 11 11 11 9 10 10 8 4 6 3 4 3 3 4 4 5 4 5 5 4 5 5 6 7
13 12 12 10 9 9 9 9 8 7 7 6 4 3 4 5 6 5 6 5 6 7 8 8 8 8 8
16 15 13 12 11 11 10 10 9 9 8 6 5 4 4 6 7 7 8 7 8 7 7 7 8 9 10
17 16 15 13 13 12 12 11 11 11 9 7 6 6 6 7 8 9 8 7 7 6 5 6 7 8 9
18 17 15 14 15 14 14 14 13 12 12 10 9 8 8 8 8 9 10 11 11 11 11 11 11 11 12
18 17 16 15 15 15 15 15 15 15 15 13 12 12 11 10 10 9 10 11 12 12 12 12 11 11 11
19 18 17 16 17 16 16 17 17 17 17 16 15 14 15 15 14 12 12 13 15 15 14 14 14 13 14
Wind_Direction
267 270 285 283 279 281 278 282 283 285 285 288 308 314 302 304 303 294 282 280 293 318 324 317 282 232 214
261 273 270 274 274 274 277 278 285 280 285 301 313 306 299 305 303 297 284 279 287 325 325 325 246 199 200
262 266 272 273 271 271 273 273 275 277 291 296 296 292 299 299 295 293 282 267 264 301 345 316 309 184 193
255 265 268 268 269 270 271 272 271 275 284 288 284 293 301 303 306 300 281 259 234 236 80 125 165 146 160
256 260 261 262 265 267 267 265 271 277 280 275 280 287 291 295 312 312 286 248 230 224 202 111 138 146 158
246 257 258 254 255 260 258 266 269 282 270 276 278 281 290 286 304 311 281 245 231 227 227 194 174 142 207
242 243 244 245 250 248 251 254 252 263 276 279 280 283 286 305 310 309 292 255 234 230 229 232 212 190 180
235 230 235 232 238 245 244 246 253 258 265 270 280 274 271 273 278 299 304 316 256 235 230 231 237 236 231
239 241 242 242 245 243 240 237 239 244 240 242 254 271 278 283 285 279 264 262 273 248 217 222 227 231 236
233 228 226 224 225 229 228 233 231 232 224 222 225 210 241 263 260 263 262 258 246 236 222 207 207 211 218
226 217 218 215 214 220 220 223 223 213 210 198 214 217 237 301 318 309 289 269 253 242 223 233 232 225 224
222 220 218 212 213 215 214 215 218 215 215 201 207 230 250 275 288 293 290 283 264 249 247 246 245 243 239
223 224 224 217 215 218 217 216 215 212 207 214 240 259 272 281 288 290 293 288 279 263 256 249 243 240 243
225 225 223 221 225 225 224 224 224 220 223 241 250 260 274 285 291 294 292 282 284 283 277 264 256 254 254
225 227 224 226 229 229 230 229 231 230 231 240 245 251 260 273 282 284 287 286 283 278 274 272 271 267 264
225 226 228 230 233 233 234 235 236 240 243 245 252 255 263 270 274 286 289 282 279 275 274 274 275 276 274
228 226 228 228 234 237 239 240 240 243 246 249 253 258 266 271 270 279 292 284 276 273 271 273 280 284 283